Weather in Malaya Malyshevka

Russia / Samara Oblast     53°03′33″N   50°57′37″E
temp.,
°C
wind,
m/s
gust,
m/s
humid.,
%
clouds,
%
prec.,
mm/h
press.,
hPa
HPBL,
m
20 june, sun
sun2001:00+16w37820 0.0 1022100
04:00+16wnw33900 0.0 102245
07:00+20wnw35760 0.0 1022243
10:00+25wnw45610 0.0 1022659
13:00+28nw45500 0.0 10211501
16:00+29nnw55500 0.0 10211606
19:00+27nw35650 0.0 1020275
22:00+21n22840 0.0 102131
21 june, mon
mon2101:00+20ene11890 0.0 102211
04:00+19ene22920 0.0 102317
07:00+22ese23800 0.0 1024231
10:00+27se22600 0.0 1024943
13:00+30sse114959 0.0 10231742
16:00+27nnw3461100 0.2 1022239
19:00+27ne1165100 0.0 102113
22:00+25e2265100 0.0 102216
22 june, tue
tue2201:00+23sw236399 0.0 102271
04:00+21wsw22770 0.0 102217
07:00+24wnw12725 0.0 1023173
10:00+28wnw23540 0.0 1023984
13:00+31nw34420 0.0 10222004
16:00+31nnw244215 0.0 10222227
19:00+27nw126288 0.0 102118
22:00+24nnw22680 0.0 102113
23 june, wed
wed2301:00+22nw22733 0.0 102112
04:00+20nw11805 0.0 102111
07:00+24nw12685 0.0 1021164
10:00+29wnw23532 0.0 1021805
13:00+31nw44400 0.0 10202329
16:00+32nw343825 0.0 10192196
19:00+22sw487978 0.9 1019155
22:00+21wnw33710 0.9 101931
24 june, thu
thu2401:00+21wnw22775 0.0 101931
04:00+20nw22800 0.0 101830
07:00+23nw35720 0.0 1018195
10:00+28nw46580 0.1 1017851
13:00+30nnw55476 0.4 10171886
16:00+30n455080 0.4 10171506
19:00+28ne24650 0.1 1017211
22:00+22e368010 0.4 101892